Flag for Switzerland Weather past 2 weeks in Bülach, Zurich, Switzerland

Now
49 °F

Cool.


Feels Like: 47 °F
Forecast: 27 / 51 °F
Wind: 5 mph from Southwest

Location: Zurich-Kloten


UV Index: 3 (Moderate)

Visibility: N/A


Pressure: 29.88 "Hg

Humidity: 68%

Dew point: 39 °F

Location of BülachLocation

Historic Weather in Bülach

°F

Bülach temperature yesterday

Maximum temperature yesterday: 59 °F (at 6:00 PM)
Minimum temperature yesterday: 32 °F (at 5:00 AM)
Average temperature yesterday: 45 °F

Past Weeks' High & Low Weather Summary

 TemperatureHumidityPressure
High70 °F (Apr 12, 3:00 PM)100% (Apr 6, 7:00 AM)30.36 "Hg (Apr 6, 7:00 AM)
Low32 °F (Apr 17, 5:00 AM)26% (Apr 9, 6:00 PM)29.63 "Hg (Apr 3, 2:00 PM)
Average52 °F65%30.07 "Hg
* Reported Apr 3 12:00 Noon — Apr 18 12:00 Noon, Bülach, Weather by CustomWeather, © 2014

Note: Actual official high and low records may vary slightly from our data, if they occured in-between our weather recording intervals... More about our weather records

Advertising

Historic Weather Conditions — Data for Previous 24 hours

 ConditionsComfort  
Time TempWeatherWind HumidityBarometerVisibility
12:00 PM
Apr 18
48 °FCool.3 mph75%29.90 "HgN/A
11:00 AM49 °FOvercast.2 mph58%29.91 "Hg19 mi
10:00 AM49 °FCool.3 mph57%29.92 "HgN/A
9:00 AM46 °FCool.2 mph70%29.92 "HgN/A
8:00 AM45 °FOvercast.3 mph65%29.93 "Hg19 mi
7:00 AM42 °FQuite cool.7 mph71%29.94 "HgN/A
6:00 AM41 °FQuite cool.7 mph72%29.96 "HgN/A
5:00 AM38 °FOvercast.5 mph79%29.98 "Hg12 mi
4:00 AM39 °FChilly.7 mph74%29.98 "HgN/A
3:00 AM39 °FChilly.6 mph70%29.99 "HgN/A
2:00 AM37 °FPassing clouds.6 mph73%30.03 "Hg12 mi
6:00 PM
Apr 17
59 °FRefreshingly cool.7 mph29%30.02 "HgN/A
4:00 PM59 °FRefreshingly cool.6 mph26%30.06 "HgN/A
3:00 PM58 °FRefreshingly cool.8 mph30%30.09 "HgN/A
2:00 PM57 °FPassing clouds.9 mph32%30.12 "Hg19 mi
1:00 PM55 °FCool.7 mph36%30.15 "HgN/A
Weather by CustomWeather, © 2014

See weather overview